Zurück zum Katalog

PRAETORIAN SDA_510

AktivMilitärPO
NORAD 100068·PAYLOAD·🇺🇸 United States

Gestartet Jul 16, 2026 von Vandenberg Space Force Base

Loading…

Nächste Überflüge (nächste 24 Stunden)

TLE

AktuellSource: Space-Track

Epoche: Sep 14, 2026, 09:49 UTC

1 A0068U 26163K   26257.40910359  .00000128  00000-0  10180-3 0  9999
2 A0068  81.4756 255.5197 0014080  57.0727 303.1783 13.85412091  8256

Verfolge PRAETORIAN SDA_510 in Echtzeit mit AllMySat

Download on the App Store